DELTA 1 DEB, 12166

Orbit data source: Space-Track

DELTA 1 DEB, 12166 is space debris in SSO originally from a launch on Sun, 05 Mar 1978 UTC launched from the Air Force Western Test Range (AFWTR). Debris objects in space refer to the collection of defunct objects orbiting the Earth. Examples of debris include non-operational satellites, rocket bodies, and fragments generated from explosions, collisions, or faulty payload assembly.

Loading next visibility...
Identifier
12166, 1978-026F
Orbit
SSO
Country
Flag of USUS
Related business
Manufacturer
Unknown
Mission
Spacecraft
Bus & Motor
Unknown
Mass
Unknown
Launch date (UTC)
1978-03-05 (48 years ago)
Launch vehicle
Unknown
Launch site
Air Force Western Test Range (AFWTR)
Object type
Payload
Rocket body
Debris
Shape & HBR
Unknown shape, 0.5 m
Radar Cross Section
Medium (>0.1 m² and <1 m²)

Expand to show TLE details & history
Last TLE update: 2 days ago

TLE from 2 days ago
0 DELTA 1 DEB
1 12166U 78026F   26171.38171441  .00000240  00000-0  13582-3 0  9993
2 12166  98.8888 206.9350 0036723 200.3258 172.3047 14.18951819340281
Epoch: 2026-06-20T09:09Z
TLE epoch observation values (Epoch: 2026-06-20T09:09:40.125Z)
Latitude
12.49245°
Longitude
158.94541°
Altitude
857.285 km
Speed
7.411 km/s
True Right ascension
13h 39m 50s
True Declination
12° 25' 16"
Sunlit
Object was in daylight at epoch
Visualization orbit readout
Latitude
Unknown
Longitude
Unknown
Altitude
Unknown
Speed
Unknown
Apparent Right ascension
Unknown
Apparent Declination
Unknown
Sunlit
N/A
Visualization observer readout
Local Sidereal Time
06:31:15
Azimuth
Unknown
Elevation
Unknown
Doppler factor
Unknown
Orbital elements
Apogee altitude
852.524 km
Perigee altitude
799.612 km
Semi-major axis
7,204.205 km
Eccentricity
0.00367
Inclination
98.8888°
RAAN
206.935°
Arg. of periapsis
200.3258°
True anomaly
172.36079°
Mean anomaly
172.3047°
Eccentric anomaly
172.33277°
Mean motion
3.54947 °/min
Orbital period
101.42 mins
BSTAR
0.00013582
Loading maneuver chart data...
Computing Atmospheric mass density...

Documentation

Showing up to 5 results
|